This is the latest recevied weather packets stored in our database for station/object NM5PB. If no packets are shown the sender has not sent any weather packets the latest 10 day(s).
| Time | Temp. | Humidity | Pressure | Rain* | Wind** | Luminosity | Snow |
|---|---|---|---|---|---|---|---|
| 1777573264 | 10° C | 69% | - | 0 mm | - | - | - |
| 1777572664 | 10° C | 70% | - | 0 mm | - | - | - |
| 1777572064 | 9.44° C | 73% | - | 0 mm | - | - | - |
| 1777571464 | 9.44° C | 76% | - | 0 mm | - | - | - |
| 1777570864 | 8.89° C | 76% | - | 0 mm | - | - | - |
| 1777570264 | 9.44° C | 72% | - | 0 mm | - | - | - |
| 1777569664 | 10.56° C | 68% | - | 0 mm | - | - | - |
| 1777569064 | 10.56° C | 61% | - | 0 mm | - | - | - |
| 1777568464 | 10.56° C | 59% | - | 0 mm | - | - | - |
| 1777567864 | 10.56° C | 61% | - | 0 mm | - | - | - |
| 1777567264 | 10.56° C | 61% | - | 0 mm | - | - | - |
| 1777566664 | 10.56° C | 61% | - | 0 mm | - | - | - |
| 1777566064 | 10.56° C | 61% | - | 0 mm | - | - | - |
| 1777565464 | 10° C | 62% | - | 0 mm | - | - | - |
| 1777564864 | 10° C | 62% | - | 0 mm | - | - | - |
| 1777564264 | 10° C | 63% | - | 0 mm | - | - | - |
| 1777563664 | 10° C | 63% | - | 0 mm | - | - | - |
| 1777563064 | 10° C | 63% | - | 0 mm | - | - | - |
| 1777562464 | 9.44° C | 62% | - | 0 mm | - | - | - |
| 1777561864 | 9.44° C | 63% | - | 0 mm | - | - | - |
| 1777561264 | 9.44° C | 64% | - | 0 mm | - | - | - |
| 1777560664 | 10° C | 63% | - | 0 mm | - | - | - |
| 1777560064 | 10° C | 65% | - | 0 mm | - | - | - |
| 1777559464 | 10° C | 65% | - | 0 mm | - | - | - |
| 1777558864 | 9.44° C | 65% | - | 0 mm | - | - | - |
* Rain latest hour (hover to see other rain measurements)
** Current wind speed in m/s (hover to see current wind gust speed)